Tracking 30995 objects as of 5-Jul-2025
HD Live streaming from Space Station
objects crossing your sky now

COSMOS 877

Track COSMOS 877 now!
10-day predictions
COSMOS 877 is classified as:


NORAD ID: 9594
Int'l Code: 1976-118G
Perigee: 1,461.3 km
Apogee: 1,470.8 km
Inclination: 74.0 °
Period: 115.1 minutes
Semi major axis: 7837 km
RCS: 0.6978 m2 (medium)
Launch date: December 7, 1976
Source: Commonwealth of Independent States (former USSR) (CIS)
Launch site: PLESETSK MISSILE AND SPACE COMPLEX (PKMTR)
Your satellite tracking list
RASAT
Track 1 satellite(s)




NASA's NSSDC Master Catalog

Two Line Element Set (TLE):
1  9594U 76118G   25185.95509765 -.00000002  00000-0  91869-4 0  9997
2  9594  74.0316  12.5552 0006067  13.0240  98.0250 12.51333279219056
Source of the keplerian elements: AFSPC